Location: *
(37.5724°S, 58.0067°E)
Time: 06:25:56
(UTC+00:00)

Cosmos 1933 Rocket - Pass Details

Date: 25 January 2021
Orbit: 607 x 630 km, 82.5° (Epoch: 06 March)

Event Time Altitude Azimuth Distance (km) Brightness Sun altitude
Rises 19:25:51 0° 192° (SSW) 2,958 8.2 -32.2°
Reaches altitude 10° 19:28:08 10° 195° (SSW) 2,041 7.1 -32.3°
Enters shadow 19:30:31 30° 205° (SSW) 1,151 5.4 -32.5°
